Terminal Aerodrome Forecast
Issued by NWS Wilmington, OH

Current Version | Previous Version | Text Only | Print | Product List | Glossary Off
Versions: 1 2 3 4 5 6 7 8 9 10 11 12 13 14 15 16

000
FTUS41 KILN 261300 AAA
TAFILN
TAF AMD
KILN 261306Z 2613/2712 34009KT 2SM -RA BR BKN004 OVC008
     FM261800 33012G22KT 3SM BR OVC015
     FM262000 32010G20KT P6SM BKN025
     FM262200 32014KT P6SM SCT040 BKN100
     FM270900 33007KT P6SM BKN050=

USA.gov is the U.S. government's official web portal to all federal, state and local government web resources and services.